Tracking 29892 objects as of 21-Nov-2024
HD Live streaming from Space Station
objects crossing your sky now

SL-16 DEB

Track SL-16 DEB now!
10-day predictions


NORAD ID: 22335
Int'l Code: 1992-093Y
Perigee: 828.5 km
Apogee: 989.0 km
Inclination: 71.2 °
Period: 103.0 minutes
Semi major axis: 7279 km
RCS: 0.6794 m2 (medium)
Launch date: December 25, 1992
Source: Commonwealth of Independent States (former USSR) (CIS)
Launch site: TYURATAM MISSILE AND SPACE COMPLEX (TTMTR)

Note: This is SATELLITE DEBRIS
Your satellite tracking list
Your tracking list is empty




NASA's NSSDC Master Catalog

Two Line Element Set (TLE):
1 22335U 92093Y   24325.78223149  .00001701  00000-0  11726-2 0  9998
2 22335  71.1644 255.3872 0110214  23.2622 357.7520 13.97747266620311
Source of the keplerian elements: AFSPC